Tracking 32139 objects as of 14-Nov-2025
HD Live streaming from Space Station
objects crossing your sky now

STARLINK-34873

Track STARLINK-34873 now!
10-day predictions
STARLINK-34873 is classified as:


NORAD ID: 65346
Int'l Code: 2025-189Z
Perigee: 453.2 km
Apogee: 455.4 km
Inclination: 53.2 °
Period: 93.5 minutes
Semi major axis: 6825 km
RCS: Unknown
Launch date: August 27, 2025
Source: United States (US)
Launch site: AIR FORCE EASTERN TEST RANGE (AFETR)
Your satellite tracking list
Your tracking list is empty




NASA's NSSDC Master Catalog

Two Line Element Set (TLE):
1 65346U 25189Z   25317.66213944  .00080093  00000-0  19898-2 0  9999
2 65346  53.1590  25.5986 0001593 100.8974 259.2210 15.39642898 13359
Source of the keplerian elements: AFSPC